Winter Haven, FL

9:24 PM EDT on July 21, 2018 (GMT -0400)
Winter Haven's-Gilbert

Weather History for KGIF - April, 2018

Change the Weather History Date:

Tuesday, April 17, 2018

  Actual Average Record
Temperature  
Mean Temperature 68 °F -  
Max Temperature 81 °F 83 °F 92 °F (1972)
Min Temperature 57 °F 59 °F -74 °F (1999)
Cooling Degree Days 4    
Growing Degree Days 18 (Base 50)    
Moisture  
Dew Point 45 °F    
Average Humidity 51    
Maximum Humidity 84    
Minimum Humidity 21    
Precipitation  
Precipitation 0.00 in - - ()
Sea Level Pressure  
Sea Level Pressure 30.13 in    
Wind  
Wind Speed 6 mph (NNW)    
Max Wind Speed 12 mph    
Max Gust Speed -    
Visibility 10 miles    
Events      
Averages and records for this station are not official NWS values.
T = Trace of Precipitation, MM = Missing Value Source: NWS Daily Summary

Daily Weather History Graph

Daily Weather History Graph

Search for Another Location

Airport or City:

Astronomy

Apr. 17, 2018 Rise Set
Actual Time 6:59 AM EDT 7:53 PM EDT
Civil Twilight 6:35 AM EDT 8:17 PM EDT
Nautical Twilight 6:07 AM EDT 8:46 PM EDT
Astronomical Twilight 5:38 AM EDT 9:15 PM EDT
Moon 8:19 AM EDT (4/17) 9:43 PM EDT (4/17)
Length of Visible Light 13h 41m
Length of Day
12h 53m
Waxing Crescent, 3% of the Moon is Illuminated
Apr 17
Waxing Crescent
Apr 22
First Quarter
Apr 29
Full
May 7
Last Quarter
May 15
New

Hourly Weather History & Observations

Time (EDT) Temp. Dew Point Humidity Pressure Visibility Wind Dir Wind Speed Gust Speed Precip Events Conditions
12:53 AM 59.0 °F 53.1 °F 81% 30.13 in 10.0 mi West 5.8 mph - N/A   Clear
1:53 AM 59.0 °F 53.1 °F 81% 30.13 in 10.0 mi West 5.8 mph - N/A   Clear
2:53 AM 57.9 °F 52.0 °F 81% 30.12 in 10.0 mi West 6.9 mph - N/A   Clear
3:53 AM 57.9 °F 53.1 °F 84% 30.12 in 10.0 mi WNW 5.8 mph - N/A   Clear
4:53 AM 57.0 °F 52.0 °F 83% 30.12 in 10.0 mi WNW 4.6 mph - N/A   Clear
5:53 AM 57.0 °F 52.0 °F 83% 30.13 in 10.0 mi NW 6.9 mph - N/A   Clear
6:53 AM 57.0 °F 46.9 °F 69% 30.14 in 10.0 mi North 11.5 mph - N/A   Clear
7:53 AM 57.0 °F 46.9 °F 69% 30.16 in 10.0 mi North 9.2 mph - N/A   Clear
8:53 AM 60.1 °F 44.1 °F 55% 30.18 in 10.0 mi North 11.5 mph - N/A   Clear
9:53 AM 64.0 °F 42.1 °F 45% 30.19 in 10.0 mi North 9.2 mph - N/A   Clear
10:53 AM 66.9 °F 39.9 °F 37% 30.19 in 10.0 mi North 10.4 mph - N/A   Clear
11:53 AM 71.1 °F 39.9 °F 32% 30.18 in 10.0 mi North 9.2 mph - N/A   Clear
12:53 PM 73.0 °F 39.0 °F 29% 30.16 in 10.0 mi North 10.4 mph - N/A   Clear
1:53 PM 75.9 °F 39.9 °F 27% 30.14 in 10.0 mi NNW 6.9 mph - N/A   Clear
2:53 PM 78.1 °F 37.0 °F 23% 30.12 in 10.0 mi NNW 5.8 mph - N/A   Clear
3:53 PM 79.0 °F 37.9 °F 23% 30.10 in 10.0 mi North 6.9 mph - N/A   Clear
4:53 PM 80.1 °F 37.0 °F 21% 30.09 in 10.0 mi NNW 6.9 mph - N/A   Clear
5:53 PM 80.1 °F 37.0 °F 21% 30.08 in 10.0 mi NNW 3.5 mph - N/A   Clear
6:53 PM 79.0 °F 37.9 °F 23% 30.08 in 10.0 mi Calm Calm - N/A   Clear
7:53 PM 73.9 °F 43.0 °F 33% 30.08 in 10.0 mi Calm Calm - N/A   Clear
8:53 PM 70.0 °F 50.0 °F 49% 30.09 in 10.0 mi Calm Calm - N/A   Clear
9:53 PM 64.9 °F 48.9 °F 56% 30.11 in 10.0 mi Calm Calm - N/A   Clear
10:53 PM 64.9 °F 51.1 °F 61% 30.12 in 10.0 mi Calm Calm - N/A   Clear
11:53 PM 62.1 °F 48.9 °F 62% 30.12 in 10.0 mi WNW 4.6 mph - N/A   Clear